Home   Weather   Varel   Past weeks

Flag for Germany Past Weather in Varel, Lower Saxony, Germany — Yesterday and Last 2 Weeks

Now
37 °F

Chilly.


Feels Like: 33 °F
Forecast: 45 / 57 °F
Wind: 6 mph from East

Location: Wittmundhaven

Current Time: Apr 30, 2017 at 5:12:25 am

Latest Report: Apr 30, 2017 at 4:20 am


Visibility: 0 mi

Pressure: 30.07 "Hg

Humidity: 93%

Dew Point: 36 °F

Location of VarelLocation

Past Weather in Varel — Graph

°F

Varel Temperature Yesterday

Maximum temperature yesterday: 50 °F (at 1:20 pm)
Minimum temperature yesterday: 37 °F (at 2:20 am)
Average temperature yesterday: 44 °F

High & Low Weather Summary for the Past Weeks

 TemperatureHumidityPressure
High55 °F (Apr 21, 1:20 pm)100% (Apr 15, 4:20 am)30.63 "Hg (Apr 15, 4:20 am)
Low27 °F (Apr 20, 6:20 am)42% (Apr 19, 6:20 pm)29.59 "Hg (Apr 25, 4:34 am)
Average43 °F75%30.09 "Hg
* Reported Apr 15 3:20 am — Apr 30 3:20 am, Varel, Weather by CustomWeather, © 2017

Note: Actual official high and low records may vary slightly from our data, if they occured in-between our weather recording intervals... More about our weather records

Advertising

Varel Weather History for the Previous 24 Hours

Scroll right to see more
 ConditionsComfort  
Time TempWeatherWind HumidityBarometerVisibility
3:20 am
Sun, Apr 30
37 °FChilly.6 mph93%30.07 "Hg0 mi
2:20 am36 °FChilly.5 mph100%30.09 "Hg1 mi
1:20 am37 °FChilly.3 mph87%30.09 "Hg4 mi
12:20 am37 °FChilly.2 mph93%30.09 "Hg6 mi
11:20 pm
Sat, Apr 29
39 °FChilly.3 mph87%30.09 "Hg6 mi
10:20 pm41 °FQuite cool.3 mph81%30.09 "Hg6 mi
9:20 pm43 °FQuite cool.6 mph76%30.09 "Hg6 mi
8:20 pm46 °FCool.5 mph66%30.07 "HgN/A
7:20 pm48 °FCool.8 mph62%30.07 "HgN/A
6:20 pm48 °FScattered clouds.7 mph66%30.07 "HgN/A
5:20 pm48 °FScattered clouds.10 mph62%30.07 "HgN/A
4:20 pm48 °FScattered clouds.9 mph62%30.07 "HgN/A
3:20 pm48 °FScattered clouds.9 mph58%30.07 "HgN/A
2:20 pm48 °FScattered clouds.14 mph58%30.07 "HgN/A
1:20 pm50 °FScattered clouds.12 mph50%30.04 "HgN/A
12:20 pm48 °FPassing clouds.12 mph58%30.04 "HgN/A
11:20 am48 °FScattered clouds.12 mph62%30.04 "HgN/A
10:20 am46 °FScattered clouds.12 mph66%30.04 "HgN/A
9:20 am46 °FScattered clouds.9 mph71%30.01 "HgN/A
8:20 am43 °FScattered clouds.9 mph81%30.01 "HgN/A
7:20 am41 °FPassing clouds.5 mph87%30.01 "HgN/A
6:20 am37 °FScattered clouds.7 mph87%30.01 "HgN/A
5:20 am39 °FPassing clouds.6 mph87%29.98 "HgN/A
Weather by CustomWeather, © 2017

See weather overviewHow to use our weather pages